Weather History for Tappahannock, VA

Change the Weather History Date:

Monday, July 1, 2013

  Actual Average (KRIC) Record (KRIC)
Temperature  
Mean Temperature 77 °F 79 °F  
Max Temperature 83 °F 90 °F 102 °F (1945)
Min Temperature 71 °F 68 °F 53 °F (1988)
Degree Days  
Heating Degree Days 0 0  
Month to date heating degree days 0  
Since 1 June heating degree days 7  
Since 1 July heating degree days 0  
Cooling Degree Days 12 14  
Month to date cooling degree days 14  
Year to date cooling degree days 490  
Since 1 June cooling degree days 329  
Growing Degree Days 27 (Base 50)    
Moisture  
Dew Point 73 °F    
Average Humidity 91    
Maximum Humidity 98    
Minimum Humidity 70    
Precipitation  
Precipitation 0.00 in 0.13 in 4.58 in (1959)
Month to date precipitation 0.13  
Year to date precipitation 20.95  
Snow  
Snow 0.00 in 0.00 in 0.00 in (2002)
Month to date snowfall 0.0  
Since 1 July snowfall 0.0  
Snow Depth -    
Sea Level Pressure  
Sea Level Pressure 29.94 in    
Wind  
Wind Speed 4 mph (SSE)    
Max Wind Speed 9 mph    
Max Gust Speed -    
Visibility 9 miles    
Events Rain , Thunderstorm    
T = Trace of Precipitation, MM = Missing Value Source: NWS Daily Summary

Daily Weather History Graph

Daily Weather History Graph

Search for Another Location

Airport:

Trip Planner

Search our weather history database for the weather conditions in past years. The results will help you decide how hot, cold, wet, or windy it might be!

Date:

Astronomy

Jul. 01, 2013 Rise Set
Actual Time 5:49 AM EDT 8:33 PM EDT
Civil Twilight 5:18 AM EDT 9:04 PM EDT
Nautical Twilight 4:38 AM EDT 9:43 PM EDT
Astronomical Twilight 3:54 AM EDT 10:27 PM EDT
Moon 1:13 AM EDT (7/1) 2:50 PM EDT (7/1)
Length of Visible Light 15h 46m
Length of Day
14h 44m
Waning Crescent, 35% of the Moon is Illuminated
Jul 1
Waning Crescent
Jul 8
New
Jul 15
First Quarter
Jul 22
Full
Jul 29
Last Quarter

Hourly Weather History & Observations

Time (EDT) Temp. Heat Index Dew Point Humidity Pressure Visibility Wind Dir Wind Speed Gust Speed Precip Events Conditions
12:15 AM 77.5 °F - 72.0 °F 83% 29.87 in 10.0 mi South 4.6 mph - N/A   Clear
12:35 AM 77.4 °F - 72.1 °F 84% 29.88 in 10.0 mi SSE 5.8 mph - N/A   Scattered Clouds
12:55 AM 77.4 °F - 70.2 °F 78% 29.88 in 10.0 mi SSW 6.9 mph - N/A   Overcast
1:15 AM 76.3 °F - 68.5 °F 77% 29.88 in 10.0 mi Calm Calm - N/A Rain Light Rain
1:35 AM 74.5 °F - 70.7 °F 88% 29.89 in 7.0 mi SSW 4.6 mph - N/A Rain Heavy Rain
1:55 AM 73.0 °F - 70.7 °F 92% 29.88 in 10.0 mi South 3.5 mph - N/A   Mostly Cloudy
2:15 AM 72.7 °F - 70.7 °F 93% 29.88 in 10.0 mi South 3.5 mph - N/A Rain Light Rain
2:35 AM 72.5 °F - 70.7 °F 94% 29.87 in 10.0 mi Calm Calm - N/A   Mostly Cloudy
2:55 AM 72.5 °F - 70.9 °F 95% 29.88 in 10.0 mi Calm Calm - N/A   Drizzle
3:15 AM 72.1 °F - 70.9 °F 96% 29.88 in 10.0 mi Calm Calm - N/A   Mostly Cloudy
3:35 AM 71.8 °F - 70.7 °F 96% 29.88 in 10.0 mi Calm Calm - N/A   Scattered Clouds
3:55 AM 72.0 °F - 70.9 °F 96% 29.87 in 10.0 mi Calm Calm - N/A   Scattered Clouds
4:15 AM 72.0 °F - 71.1 °F 97% 29.88 in 10.0 mi Calm Calm - N/A   Scattered Clouds
4:35 AM 71.8 °F - 71.1 °F 98% 29.89 in 7.0 mi Calm Calm - N/A Rain Light Rain
4:55 AM 72.0 °F - 71.2 °F 98% 29.89 in 7.0 mi SSE 3.5 mph - N/A Rain Rain
5:15 AM 72.5 °F - 71.6 °F 97% 29.90 in 5.0 mi South 4.6 mph - N/A Rain Heavy Rain
5:35 AM 72.5 °F - 71.6 °F 97% 29.91 in 10.0 mi SSE 3.5 mph - N/A Rain Light Rain
5:55 AM 72.5 °F - 71.6 °F 97% 29.91 in 10.0 mi South 4.6 mph - N/A   Mostly Cloudy
6:15 AM 72.5 °F - 71.6 °F 97% 29.91 in 10.0 mi SSE 3.5 mph - N/A   Overcast
6:35 AM 72.1 °F - 71.6 °F 98% 29.91 in 10.0 mi Calm Calm - N/A   Overcast
6:55 AM 72.1 °F - 71.6 °F 98% 29.91 in 10.0 mi ESE 3.5 mph - N/A   Scattered Clouds
7:15 AM 72.3 °F - 71.6 °F 98% 29.92 in 10.0 mi ESE 3.5 mph - N/A   Scattered Clouds
7:35 AM 72.5 °F - 71.6 °F 97% 29.92 in 10.0 mi ESE 3.5 mph - N/A Rain Light Rain
7:55 AM 72.0 °F - 71.1 °F 97% 29.93 in 2.0 mi ESE 4.6 mph - N/A Rain Rain
8:15 AM 72.0 °F - 71.2 °F 98% 29.92 in 2.0 mi ESE 5.8 mph - N/A Rain Rain
8:35 AM 72.3 °F - 71.6 °F 98% 29.93 in 10.0 mi Calm Calm - N/A   Overcast
8:55 AM 72.5 °F - 71.6 °F 97% 29.94 in 10.0 mi Calm Calm - N/A Rain Light Rain
9:15 AM 72.7 °F - 72.0 °F 98% 29.94 in 7.0 mi Calm Calm - N/A Rain Light Rain
9:35 AM 73.8 °F - 73.0 °F 98% 29.94 in 10.0 mi Calm Calm - N/A   Overcast
9:55 AM 74.7 °F - 73.6 °F 96% 29.93 in 10.0 mi South 3.5 mph - N/A   Overcast
10:15 AM 76.3 °F - 74.7 °F 95% 29.93 in 10.0 mi South 3.5 mph - N/A   Overcast
10:35 AM 77.0 °F - 74.5 °F 92% 29.94 in 10.0 mi South 5.8 mph - N/A   Overcast
10:55 AM 77.2 °F - 74.5 °F 91% 29.94 in 10.0 mi South 5.8 mph - N/A   Overcast
11:15 AM 78.6 °F - 74.7 °F 88% 29.94 in 10.0 mi South 8.1 mph - N/A   Mostly Cloudy
11:35 AM 77.5 °F - 73.8 °F 88% 29.95 in 7.0 mi South 4.6 mph - N/A Rain Light Rain
11:55 AM 75.6 °F - 74.1 °F 95% 29.95 in 1.5 mi SSE 5.8 mph - N/A Rain , Thunderstorm Heavy Thunderstorms and Rain
12:15 PM 75.7 °F - 74.1 °F 95% 29.95 in 5.0 mi SE 3.5 mph - N/A Rain Rain
12:35 PM 77.0 °F - 75.2 °F 94% 29.95 in 10.0 mi SE 3.5 mph - N/A   Overcast
12:55 PM 76.5 °F - 74.8 °F 95% 29.94 in 10.0 mi SSE 4.6 mph - N/A   Mostly Cloudy
1:15 PM 77.4 °F - 74.8 °F 92% 29.93 in 10.0 mi SSE 4.6 mph - N/A   Mostly Cloudy
1:35 PM 78.3 °F - 74.8 °F 89% 29.94 in 10.0 mi SSE 4.6 mph - N/A   Mostly Cloudy
1:55 PM 79.2 °F - 74.1 °F 84% 29.94 in 10.0 mi ESE 4.6 mph - N/A   Overcast
2:15 PM 79.9 °F - 74.1 °F 82% 29.94 in 10.0 mi South 4.6 mph - N/A   Overcast
2:35 PM 79.9 °F - 73.9 °F 82% 29.94 in 10.0 mi SSE 8.1 mph - N/A   Overcast
2:55 PM 82.4 °F 88.4 °F 73.9 °F 75% 29.94 in 10.0 mi South 9.2 mph - N/A   Mostly Cloudy
3:15 PM 83.8 °F 90.1 °F 73.2 °F 70% 29.94 in 10.0 mi SSW 9.2 mph - N/A   Mostly Cloudy
3:35 PM 81.9 °F 87.3 °F 73.2 °F 75% 29.94 in 10.0 mi SSE 4.6 mph - N/A   Mostly Cloudy
3:55 PM 81.5 °F 86.9 °F 73.6 °F 77% 29.94 in 10.0 mi SSE 5.8 mph - N/A   Scattered Clouds
4:15 PM 81.5 °F 87.2 °F 73.9 °F 78% 29.94 in 10.0 mi SE 6.9 mph - N/A   Scattered Clouds
4:35 PM 81.0 °F 86.2 °F 73.8 °F 79% 29.95 in 10.0 mi SE 6.9 mph - N/A   Mostly Cloudy
4:55 PM 81.5 °F 87.4 °F 74.3 °F 79% 29.94 in 10.0 mi SE 6.9 mph - N/A   Mostly Cloudy
5:15 PM 76.5 °F - 73.9 °F 92% 29.95 in 1.5 mi SSE 3.5 mph - N/A Rain Light Rain
5:35 PM 77.0 °F - 73.9 °F 90% 29.96 in 10.0 mi SE 8.1 mph - N/A   Mostly Cloudy
5:55 PM 76.6 °F - 74.1 °F 92% 29.96 in 10.0 mi SSE 6.9 mph - N/A   Clear
6:15 PM 77.0 °F - 74.5 °F 92% 29.96 in 10.0 mi SSE 4.6 mph - N/A   Scattered Clouds
6:35 PM 77.2 °F - 74.5 °F 91% 29.97 in 10.0 mi South 3.5 mph - N/A   Scattered Clouds
6:55 PM 77.2 °F - 74.5 °F 91% 29.97 in 10.0 mi SSE 5.8 mph - N/A   Clear
7:15 PM 77.0 °F - 74.8 °F 93% 29.97 in 10.0 mi SSE 3.5 mph - N/A   Mostly Cloudy
7:35 PM 77.0 °F - 75.0 °F 94% 29.98 in 10.0 mi SSE 3.5 mph - N/A   Overcast
7:55 PM 77.0 °F - 75.0 °F 94% 29.98 in 10.0 mi SSE 3.5 mph - N/A   Overcast
8:15 PM 77.0 °F - 74.7 °F 92% 29.98 in 10.0 mi SE 4.6 mph - N/A   Mostly Cloudy
8:35 PM 76.5 °F - 74.3 °F 93% 29.98 in 10.0 mi SSE 5.8 mph - N/A   Scattered Clouds
8:55 PM 76.5 °F - 74.3 °F 93% 29.98 in 10.0 mi SE 6.9 mph - N/A   Scattered Clouds
9:15 PM 76.1 °F - 73.8 °F 92% 29.99 in 10.0 mi SSE 6.9 mph - N/A   Mostly Cloudy
9:35 PM 76.1 °F - 73.8 °F 92% 29.99 in 10.0 mi SSE 5.8 mph - N/A   Scattered Clouds
9:55 PM 76.1 °F - 73.4 °F 91% 29.99 in 10.0 mi SSE 5.8 mph - N/A   Scattered Clouds
10:15 PM 75.9 °F - 73.6 °F 92% 30.00 in 10.0 mi South 6.9 mph - N/A   Scattered Clouds
10:35 PM 75.7 °F - 73.4 °F 92% 30.01 in 10.0 mi South 6.9 mph - N/A   Scattered Clouds
10:55 PM 76.1 °F - 73.0 °F 90% 30.02 in 10.0 mi South 6.9 mph - N/A   Mostly Cloudy
11:15 PM 76.1 °F - 73.0 °F 90% 30.02 in 10.0 mi SSE 6.9 mph - N/A   Overcast
11:35 PM 75.7 °F - 72.7 °F 90% 30.02 in 10.0 mi SSE 4.6 mph - N/A   Overcast
11:55 PM 75.7 °F - 72.7 °F 90% 30.03 in 10.0 mi South 4.6 mph - N/A   Overcast